Flag Weather past 2 weeks in Sydney, New South Wales, Australia

Now
73 °F

Broken clouds.


Feels Like: 75 °F
Forecast: 71 / 82 °F
Wind: 9 mph from Southwest

Location: Sydney Airport

Current Time: Nov 24, 2014 at 9:29:26 AM

Latest Report: Nov 24, 2014 at 9:00 AM


Visibility: N/A

Pressure: 29.98 "Hg

Humidity: 74%

Dew point: 64 °F

Location of SydneyLocation

Historic Weather in Sydney — Graph

°F

Sydney temperature yesterday

Maximum temperature yesterday: 90 °F (at 2:00 PM)
Minimum temperature yesterday: 70 °F (at 2:00 AM)
Average temperature yesterday: 76 °F

Past Weeks' High & Low Weather Summary

 TemperatureHumidityPressure
High99 °F (Nov 14, 1:30 PM)94% (Nov 23, 8:00 PM)30.18 "Hg (Nov 23, 8:00 PM)
Low61 °F (Nov 11, 5:00 AM)22% (Nov 14, 12:30 PM)29.53 "Hg (Nov 16, 1:30 PM)
Average71 °F68%29.93 "Hg
* Reported Nov 9 8:00 AM — Nov 24 8:00 AM, Sydney, Weather by CustomWeather, © 2014

Note: Actual official high and low records may vary slightly from our data, if they occured in-between our weather recording intervals... More about our weather records

Advertising

Sydney weather history for previous 24 hours

 ConditionsComfort  
Time TempWeatherWind HumidityBarometerVisibility
8:00 AM
Nov 24
72 °FPartly sunny.10 mph78%29.95 "HgN/A
7:00 AM72 °FBroken clouds.10 mph83%29.95 "HgN/A
6:30 AM72 °FPartly sunny.16 mph83%29.92 "HgN/A
6:00 AM70 °FPartly sunny.14 mph88%29.92 "HgN/A
5:30 AM70 °FPassing clouds.13 mph83%29.92 "HgN/A
5:00 AM70 °FPassing clouds.12 mph88%29.89 "HgN/A
4:30 AM70 °FPassing clouds.13 mph94%29.89 "HgN/A
4:00 AM70 °FPassing clouds.10 mph88%29.86 "HgN/A
3:30 AM70 °FPassing clouds.10 mph88%29.86 "HgN/A
3:00 AM70 °FPassing clouds.10 mph94%29.86 "HgN/A
2:30 AM70 °FPassing clouds.8 mph88%29.89 "HgN/A
2:00 AM70 °FClear.12 mph88%29.89 "Hg10 mi
1:30 AM72 °FClear.12 mph83%29.92 "Hg10 mi
1:00 AM72 °FPassing clouds.10 mph88%29.92 "HgN/A
12:00 AM72 °FPassing clouds.6 mph83%29.92 "HgN/A
11:30 PM
Nov 23
72 °FClear.10 mph88%29.92 "Hg10 mi
11:00 PM72 °FPassing clouds.7 mph88%29.92 "HgN/A
10:30 PM72 °FPassing clouds.10 mph83%29.92 "HgN/A
10:00 PM72 °FPassing clouds.13 mph83%29.92 "HgN/A
9:00 PM72 °FPassing clouds.14 mph88%29.89 "HgN/A
8:30 PM72 °FLight rain. Passing clouds.21 mph88%29.92 "Hg6 mi
8:00 PM72 °FPassing clouds.22 mph94%29.86 "Hg6 mi
7:30 PM72 °FScattered showers. Partly sunny.25 mph88%29.86 "HgN/A
7:00 PM72 °FPartly sunny.28 mph88%29.80 "Hg6 mi
6:30 PM72 °FPartly sunny.26 mph88%29.77 "Hg6 mi
6:00 PM73 °FScattered clouds.18 mph83%29.77 "HgN/A
5:30 PM75 °FScattered clouds.17 mph78%29.74 "HgN/A
5:00 PM79 °FScattered showers. Broken clouds.15 mph70%29.74 "HgN/A
4:00 PM77 °FScattered clouds.21 mph74%29.74 "HgN/A
3:30 PM88 °FScattered clouds.17 mph49%29.74 "HgN/A
3:00 PM90 °FScattered clouds.16 mph41%29.74 "HgN/A
2:30 PM90 °FSunny.14 mph46%29.74 "Hg10 mi
2:00 PM90 °FSunny.15 mph43%29.77 "Hg10 mi
1:30 PM88 °FSunny.15 mph49%29.77 "Hg10 mi
1:00 PM86 °FSunny.14 mph52%29.80 "Hg10 mi
12:30 PM84 °FSunny.14 mph55%29.80 "Hg10 mi
12:00 PM82 °FSunny.13 mph58%29.83 "Hg10 mi
11:30 AM84 °FSunny.14 mph55%29.83 "Hg10 mi
11:00 AM82 °FSunny.13 mph58%29.83 "Hg10 mi
10:30 AM82 °FSunny.10 mph58%29.86 "Hg10 mi
10:00 AM82 °FSunny.5 mph55%29.83 "Hg10 mi
9:30 AM77 °FSunny.5 mph69%29.86 "Hg10 mi
9:00 AM79 °FSunny.5 mph61%29.86 "Hg10 mi
Weather by CustomWeather, © 2014

See weather overviewHow to use our weather pages